Regional Weather Roundup
Issued by NWS

Home | Current Version | Previous Version | Text Only | Print | Product List | Glossary Off
Versions: 1 2 3 4 5 6 7 8 9 10 11 12 13 14 15 16 17 18 19 20 21 22 23 24 25 26 27 28 29 30 31 32 33 34 35 36 37 38 39 40 41 42 43 44 45 46 47 48 49 50

000
ASUS43 KBIS 030110
RWRND

NORTH DAKOTA REGIONAL WEATHER ROUNDUP
NATIONAL WEATHER SERVICE BISMARCK ND
800 PM CDT TUE JUN 02 2015

NOTE: "FAIR" INDICATES FEW OR NO CLOUDS BELOW 12,000 FEET WITH NO
SIGNIFICANT WEATHER AND/OR OBSTRUCTIONS TO VISIBILITY.


NDZ001>003-009>011-017-030200-
NORTHWEST NORTH DAKOTA

CITY           SKY/WX    TMP DP  RH WIND       PRES   REMARKS
WILLISTON      LGT RAIN  56  54  93 NE20G26   29.85R
MINOT          CLOUDY    61  57  87 E16G26    29.75F
MINOT AFB      CLOUDY    60  60 100 E16G24    29.75F
$$

NDZ018>021-031>035-040>046-030200-
SOUTHWEST NORTH DAKOTA

CITY           SKY/WX    TMP DP  RH WIND       PRES   REMARKS
BISMARCK       PTSUNNY   74  66  76 E7        29.73S
DICKINSON      MOSUNNY   61  52  72 W18       29.79R
GARRISON         N/A     67  61  81 E14       29.73F
HETTINGER ARPT SUNNY     70  55  59 NW15      29.81R
$$

NDZ004>008-012>016-024-026-027-054-030200-
NORTHEAST NORTH DAKOTA

CITY           SKY/WX    TMP DP  RH WIND       PRES   REMARKS
GRAND FORKS    CLOUDY    66  62  87 N10       29.75S
GRND FRKS AFB  PTSUNNY   62  60  92 NE12      29.76S
DEVILS LAKE    CLOUDY    63  55  77 E14       29.75F
$$

NDZ022-023-025-028>030-036>039-047>053-030200-
SOUTHEAST NORTH DAKOTA

CITY           SKY/WX    TMP DP  RH WIND       PRES   REMARKS
FARGO          LGT RAIN  78  63  59 SE13      29.69F
JAMESTOWN      TSTM      73  64  73 E8        29.69S
$$



USA.gov is the U.S. government's official web portal to all federal, state and local government web resources and services.